Simultaneous Nadir Overpasses (SNOs) Predictions

Prediction of SNOs between AQUA and METOP-B Satellite Orbit:

Table of predicted SNOs for the next 14.0 days since TLE Epoch: 3/1/2025
Index Date (AQUA) Time (AQUA) Lat,Lon (AQUA) SZA (AQUA ) Date (METOP-B) Time (METOP-B) Lat,Lon (METOP-B) SZA (METOP-B ) Distance(km) Time Diff (sec)
1 03/02/2025 10:48:34 76.99, 16.65 83.97 03/02/2025 10:47:21 76.91, 16.33 83.90 12.23 73
2 03/02/2025 11:37:53 -77.02,-175.77 96.02 03/02/2025 11:38:00 -77.03,-175.88 96.01 2.76 7
3 03/05/2025 00:27:08 -77.06, -8.17 96.96 03/05/2025 00:27:03 -77.06, -8.04 96.95 3.10 5
4 03/05/2025 01:16:29 77.14, 159.17 83.13 03/05/2025 01:17:41 77.15, 159.67 83.13 12.47 72
5 03/07/2025 13:16:19 -77.03, 159.69 97.97 03/07/2025 13:16:07 -77.03, 159.55 97.97 3.49 12
6 03/07/2025 14:05:39 77.08, -32.81 82.07 03/07/2025 14:06:46 77.08, -32.92 82.07 2.76 67
7 03/10/2025 02:05:28 -77.04, -32.55 98.96 03/10/2025 02:05:09 -77.07, -32.56 98.92 4.29 19
8 03/10/2025 02:54:48 77.09, 134.93 81.09 03/10/2025 02:55:49 77.08, 134.79 81.08 3.48 61
9 03/12/2025 14:54:35 -77.07, 135.10 99.92 03/12/2025 14:54:12 -77.06, 135.09 99.93 1.07 23
10 03/12/2025 15:43:54 77.12, -57.43 80.13 03/12/2025 15:44:50 77.11, -57.38 80.11 2.17 56
11 03/15/2025 03:43:38 -77.09, -57.17 100.90 03/15/2025 03:43:13 -77.08, -57.13 100.91 1.60 25



Historial Predications of SNOs between AQUA and METOP-B
